Regional Weather Roundup
Issued by NWS

Home | Current Version | Previous Version | Graphics & Text | Print | Product List | Glossary On
Versions: 1 2 3 4 5 6 7 8 9 10 11 12 13 14 15 16 17 18 19 20 21 22 23 24 25 26 27 28 29 30 31 32 33 34 35 36 37 38 39 40 41 42 43 44 45 46 47 48 49 50
273
ASUS45 KCYS 260510
RWRWY

WYOMING REGIONAL WEATHER ROUNDUP
NATIONAL WEATHER SERVICE CHEYENNE WY
1000 PM MST SAT FEB 25 2017

NOTE:  "FAIR" INDICATES FEW OR NO CLOUDS BELOW 12,000 FEET
WITH NO SIGNIFICANT WEATHER AND/OR OBSTRUCTIONS TO VISIBILITY.

WYZ001-260600-
YELLOWSTONE NATIONAL PARK

CITY           SKY/WX    TMP DP  RH WIND       PRES   REMARKS
LK YELLOWSTONE   N/A     -4  -7  87 CALM      29.76R
W YELLOWSTONE  NOT AVBL

$$
WYZ002>013-054>058-071-098>099-260600-
NORTHERN WYOMING

CITY           SKY/WX    TMP DP  RH WIND       PRES   REMARKS
JACKSON        CLOUDY    12   7  79 S12       29.83S WCI  -2
CODY           FAIR      22   1  40 W21G33    29.69R WCI   6
GREYBULL       FAIR      25   9  50 E6        29.73R WCI  18
WORLAND        FAIR      17  10  74 S8        29.73R WCI   7
SHERIDAN       FAIR      17  11  77 SE10      29.70S WCI   5
BUFFALO        FAIR      15   7  70 W10       29.68S WCI   2
GILLETTE       FAIR      18  15  88 W9        29.69S WCI   7
HULETT         FAIR      21  16  79 SW7       29.68F WCI  13
NEWCASTLE      MOCLDY    16  12  86 N9        29.73R WCI   4

$$
WYZ014>020-022>026-101>103-260600-
CENTRAL WYOMING

CITY           SKY/WX    TMP DP  RH WIND       PRES   REMARKS
BIG PINEY      FAIR     -10 -15  78 N7        29.82F WCI -25
PINEDALE       FAIR      -4  -8  84 CALM      29.83R
DUBOIS         FAIR       9  -2  61 W28G35    29.69S WCI -13
LANDER         FAIR      11  -6  46 W5        29.74R WCI   3
RIVERTON       FAIR      17   1  49 NW28G36   29.73R WCI  -2
CASPER         FAIR      10   0  63 SW10      29.73R WCI  -4
DOUGLAS        FAIR      12   3  67 NW7       29.73R WCI   1

$$
WYZ021-027>030-104>119-260600-
SOUTHERN WYOMING

CITY           SKY/WX    TMP DP  RH WIND       PRES   REMARKS
EVANSTON       FAIR       5   0  79 W13       29.87S WCI -12
KEMMERER       LGT SNOW   1  -4  78 SW8       29.83S WCI -12
FORT BRIDGER   FAIR      10   8  95 W15       29.88S WCI  -7
ROCK SPRINGS   FAIR      10   4  76 W22       29.83S WCI -10
DIXON            N/A      2  -2  83 NE3       29.90R
RAWLINS        FAIR      11   4  73 W22       29.77R WCI  -8
SARATOGA       FAIR      12   7  79 W16       29.80R WCI  -4
LARAMIE        MOCLDY    13   1  59 W20       29.70R WCI  -5
CHEYENNE       FAIR      16   2  54 W12       29.74S WCI   3
TORRINGTON     FAIR      21   9  59 W17       29.76R WCI   7
PINE BLUFFS    FAIR      16   5  62 W10G17    29.78S WCI   3

$$




USA.gov is the U.S. government's official web portal to all federal, state and local government web resources and services.